TimeJST,TemperatureF,Dew PointF,Humidity,Sea Level PressureIn,VisibilityMPH,Wind Direction,Wind SpeedMPH,Gust SpeedMPH,PrecipitationIn,Events,Conditions,WindDirDegrees,DateUTC
12:00 AM,69,57,57,30.15,,ESE,13.8,,,,,110,2013-03-06 15:00:00
3:00 AM,69,56,55,30.11,9,ESE,9.2,,,,Scattered Clouds,120,2013-03-06 18:00:00
6:00 AM,68,58,63,30.10,6,ESE,8.1,,,,Partly Cloudy,120,2013-03-06 21:00:00
6:00 AM,68.0,57.2,68,30.09,6.2,ESE,5.8,-,N/A,,Partly Cloudy,110,2013-03-06 21:00:00
7:00 AM,66.2,55.4,68,30.09,6.2,SSE,3.5,-,N/A,,Scattered Clouds,160,2013-03-06 22:00:00
8:00 AM,66.2,57.2,73,30.09,6.2,South,3.5,-,N/A,,Scattered Clouds,170,2013-03-06 23:00:00
9:00 AM,71,59,56,30.13,9,SE,9.2,,,,Scattered Clouds,140,2013-03-07 00:00:00
9:00 AM,71.6,57.2,60,30.12,6.2,SE,6.9,-,N/A,,Partly Cloudy,140,2013-03-07 00:00:00
10:00 AM,71.6,57.2,60,30.12,6.2,SE,9.2,-,N/A,,Scattered Clouds,130,2013-03-07 01:00:00
11:00 AM,73.4,57.2,57,30.12,6.2,SSE,9.2,-,N/A,,Scattered Clouds,150,2013-03-07 02:00:00
12:00 PM,75,60,49,30.12,9,SSE,11.5,,,,Partly Cloudy,150,2013-03-07 03:00:00
12:00 PM,73.4,57.2,57,30.09,6.2,SE,10.4,-,N/A,,Scattered Clouds,140,2013-03-07 03:00:00
1:00 PM,73.4,59.0,61,30.06,6.2,SSE,12.7,-,N/A,,Scattered Clouds,150,2013-03-07 04:00:00
2:00 PM,73.4,57.2,57,30.06,6.2,South,10.4,-,N/A,,Mostly Cloudy,170,2013-03-07 05:00:00
3:00 PM,74,60,51,30.06,9,South,6.9,,,,Mostly Cloudy,180,2013-03-07 06:00:00
3:00 PM,71.6,57.2,60,30.04,6.2,SSE,8.1,-,N/A,,Mostly Cloudy,150,2013-03-07 06:00:00
4:00 PM,73.4,59.0,61,30.04,6.2,SSW,8.1,-,N/A,,Mostly Cloudy,210,2013-03-07 07:00:00
5:00 PM,71.6,57.2,60,30.04,6.2,SSW,6.9,-,N/A,,Scattered Clouds,210,2013-03-07 08:00:00
6:00 PM,72,61,60,30.06,12,South,5.8,,,,Scattered Clouds,180,2013-03-07 09:00:00
6:00 PM,71.6,59.0,64,30.04,6.2,SSW,4.6,-,N/A,,Mostly Cloudy,200,2013-03-07 09:00:00
7:00 PM,69.8,59.0,68,30.04,6.2,South,4.6,-,N/A,,Mostly Cloudy,190,2013-03-07 10:00:00
8:00 PM,68.0,59.0,73,30.06,6.2,Variable,2.3,-,N/A,,Scattered Clouds,0,2013-03-07 11:00:00
9:00 PM,71,63,68,30.09,9,South,6.9,,,,Scattered Clouds,170,2013-03-07 12:00:00